Tracking 31027 objects as of 19-Jul-2025
HD Live streaming from Space Station
objects crossing your sky now

STARLINK-4093

Track STARLINK-4093 now!
10-day predictions
STARLINK-4093 is classified as:


NORAD ID: 53157
Int'l Code: 2022-083AB
Perigee: 299.3 km
Apogee: 301.8 km
Inclination: 53.2 °
Period: 90.4 minutes
Semi major axis: 6671 km
RCS: Unknown
Launch date: July 17, 2022
Source: United States (US)
Launch site: AIR FORCE EASTERN TEST RANGE (AFETR)
Your satellite tracking list
OBJECT A
Track 1 satellite(s)




NASA's NSSDC Master Catalog

Two Line Element Set (TLE):
1 53157U 22083AB  25199.48601707  .00859610  32545-3  23973-2 0  9992
2 53157  53.2144 117.6936 0001849 100.8046 259.3191 15.93170101166872
Source of the keplerian elements: AFSPC